owner,sensor,date,latitude,longitude,air_pressure(mBar),qcFlag 
TABS,ioos:station:wmo:42043:1,2019-07-01T04:00:00Z,28.9818,-94.9186,1016.83,11111222 
TABS,ioos:station:wmo:42043:1,2019-07-01T05:00:00Z,28.9818,-94.9186,1016.6,11111222 
TABS,ioos:station:wmo:42043:1,2019-07-01T06:00:00Z,28.9818,-94.9186,1016.32,11111222 
TABS,ioos:station:wmo:42043:1,2019-07-01T07:00:00Z,28.9818,-94.9186,1015.95,11111222 
TABS,ioos:station:wmo:42043:1,2019-07-01T08:00:00Z,28.9818,-94.9186,1015.68,11111222 
TABS,ioos:station:wmo:42043:1,2019-07-01T09:00:00Z,28.9818,-94.9186,1015.77,11111222 
TABS,ioos:station:wmo:42043:1,2019-07-01T10:00:00Z,28.9818,-94.9186,1016.19,11111222 
TABS,ioos:station:wmo:42043:1,2019-07-01T11:00:00Z,28.9818,-94.9186,1016.35,11111222 
TABS,ioos:station:wmo:42043:1,2019-07-01T12:00:00Z,28.9818,-94.9186,1016.74,11111222 
TABS,ioos:station:wmo:42043:1,2019-07-01T13:00:00Z,28.9818,-94.9186,1016.95,11111222 
TABS,ioos:station:wmo:42043:1,2019-07-01T15:30:00Z,28.9818,-94.9186,1017.63,11111222 
TABS,ioos:station:wmo:42043:1,2019-07-01T16:00:00Z,28.9818,-94.9186,1017.7,11111222 
TABS,ioos:station:wmo:42043:1,2019-07-01T17:00:00Z,28.9818,-94.9186,1017.41,11111222 
TABS,ioos:station:wmo:42043:1,2019-07-01T18:00:00Z,28.9818,-94.9186,1017.16,11111222 
TABS,ioos:station:wmo:42043:1,2019-07-01T19:00:00Z,28.9818,-94.9186,1016.62,11111222 
TABS,ioos:station:wmo:42043:1,2019-07-01T20:00:00Z,28.9818,-94.9186,1016.25,11111222 
TABS,ioos:station:wmo:42043:1,2019-07-01T21:00:00Z,28.9818,-94.9186,1016.12,11111222 
TABS,ioos:station:wmo:42043:1,2019-07-01T22:00:00Z,28.9818,-94.9186,1015.68,11111222 
TABS,ioos:station:wmo:42043:1,2019-07-01T23:00:00Z,28.9818,-94.9186,1015.44,11111222 
TABS,ioos:station:wmo:42043:1,2019-07-01T23:30:00Z,28.9818,-94.9186,1015.12,11111222 
TABS,ioos:station:wmo:42043:1,2019-07-02T04:00:00Z,28.9818,-94.9186,1015.78,11111222 
TABS,ioos:station:wmo:42043:1,2019-07-02T05:00:00Z,28.9818,-94.9186,1015.3,11111222 
TABS,ioos:station:wmo:42043:1,2019-07-02T06:00:00Z,28.9818,-94.9186,1015.26,11111222 
TABS,ioos:station:wmo:42043:1,2019-07-02T07:00:00Z,28.9818,-94.9186,1015.16,11111222 
TABS,ioos:station:wmo:42043:1,2019-07-02T08:00:00Z,28.9818,-94.9186,1015.08,11111222 
TABS,ioos:station:wmo:42043:1,2019-07-02T09:00:00Z,28.9818,-94.9186,1014.72,11111222 
TABS,ioos:station:wmo:42043:1,2019-07-02T10:00:00Z,28.9818,-94.9186,1015.0,11111222 
TABS,ioos:station:wmo:42043:1,2019-07-02T10:30:00Z,28.9818,-94.9186,1015.2,11111222 
TABS,ioos:station:wmo:42043:1,2019-07-02T12:00:00Z,28.9818,-94.9186,1015.71,11111222 
TABS,ioos:station:wmo:42043:1,2019-07-02T12:30:00Z,28.9818,-94.9186,1015.88,11111222 
TABS,ioos:station:wmo:42043:1,2019-07-02T14:00:00Z,28.9818,-94.9186,1016.05,11111222 
TABS,ioos:station:wmo:42043:1,2019-07-02T15:00:00Z,28.9818,-94.9186,1016.15,11111222 
TABS,ioos:station:wmo:42043:1,2019-07-02T16:00:00Z,28.9818,-94.9186,1016.27,11111222 
TABS,ioos:station:wmo:42043:1,2019-07-02T17:00:00Z,28.9818,-94.9186,1015.98,11111222 
TABS,ioos:station:wmo:42043:1,2019-07-02T18:00:00Z,28.9818,-94.9186,1015.52,11111222 
TABS,ioos:station:wmo:42043:1,2019-07-02T19:00:00Z,28.9818,-94.9186,1015.03,11111222 
TABS,ioos:station:wmo:42043:1,2019-07-02T19:30:00Z,28.9818,-94.9186,1015.53,11111222 
TABS,ioos:station:wmo:42043:1,2019-07-02T21:00:00Z,28.9818,-94.9186,1014.46,11111222 
TABS,ioos:station:wmo:42043:1,2019-07-02T22:00:00Z,28.9818,-94.9186,1014.39,11111222 
TABS,ioos:station:wmo:42043:1,2019-07-02T23:00:00Z,28.9818,-94.9186,1014.3,11111222 
TABS,ioos:station:wmo:42043:1,2019-07-02T23:30:00Z,28.9818,-94.9186,1014.49,11111222 
TABS,ioos:station:wmo:42043:1,2019-07-03T04:00:00Z,28.9818,-94.9186,1013.43,11111222 
TABS,ioos:station:wmo:42043:1,2019-07-03T05:00:00Z,28.9818,-94.9186,1013.6,11111222 
TABS,ioos:station:wmo:42043:1,2019-07-03T06:00:00Z,28.9818,-94.9186,1014.01,11111222 
TABS,ioos:station:wmo:42043:1,2019-07-03T07:00:00Z,28.9818,-94.9186,1013.67,11111222 
TABS,ioos:station:wmo:42043:1,2019-07-03T08:00:00Z,28.9818,-94.9186,1013.1,11111222 
TABS,ioos:station:wmo:42043:1,2019-07-03T09:00:00Z,28.9818,-94.9186,1013.31,11111222 
TABS,ioos:station:wmo:42043:1,2019-07-03T10:00:00Z,28.9818,-94.9186,1013.11,11111222 
TABS,ioos:station:wmo:42043:1,2019-07-03T11:00:00Z,28.9818,-94.9186,1013.53,11111222 
TABS,ioos:station:wmo:42043:1,2019-07-03T12:00:00Z,28.9818,-94.9186,1014.02,11111222 
TABS,ioos:station:wmo:42043:1,2019-07-03T13:00:00Z,28.9818,-94.9186,1014.76,11111222 
TABS,ioos:station:wmo:42043:1,2019-07-03T14:00:00Z,28.9818,-94.9186,1015.34,11111222 
TABS,ioos:station:wmo:42043:1,2019-07-03T15:00:00Z,28.9818,-94.9186,1015.4,11111222 
TABS,ioos:station:wmo:42043:1,2019-07-03T16:00:00Z,28.9818,-94.9186,1015.11,11111222 
TABS,ioos:station:wmo:42043:1,2019-07-03T17:00:00Z,28.9818,-94.9186,1015.54,11111222 
TABS,ioos:station:wmo:42043:1,2019-07-03T18:00:00Z,28.9818,-94.9186,1015.54,11111222 
TABS,ioos:station:wmo:42043:1,2019-07-03T19:00:00Z,28.9818,-94.9186,1015.09,11111222 
TABS,ioos:station:wmo:42043:1,2019-07-03T20:00:00Z,28.9818,-94.9186,1013.83,11111222 
TABS,ioos:station:wmo:42043:1,2019-07-03T21:00:00Z,28.9818,-94.9186,1012.81,11111222 
TABS,ioos:station:wmo:42043:1,2019-07-03T22:00:00Z,28.9818,-94.9186,1012.71,11111222 
TABS,ioos:station:wmo:42043:1,2019-07-03T23:00:00Z,28.9818,-94.9186,1012.59,11111222 
TABS,ioos:station:wmo:42043:1,2019-07-03T23:30:00Z,28.9818,-94.9186,1012.78,11111222 
TABS,ioos:station:wmo:42043:1,2019-07-04T05:00:00Z,28.9818,-94.9186,1013.6,11111222 
TABS,ioos:station:wmo:42043:1,2019-07-04T06:00:00Z,28.9818,-94.9186,1013.5,11111222 
TABS,ioos:station:wmo:42043:1,2019-07-04T07:00:00Z,28.9818,-94.9186,1013.19,11111222 
TABS,ioos:station:wmo:42043:1,2019-07-04T08:00:00Z,28.9818,-94.9186,1012.83,11111222 
TABS,ioos:station:wmo:42043:1,2019-07-04T09:00:00Z,28.9818,-94.9186,1012.9,11111222 
TABS,ioos:station:wmo:42043:1,2019-07-04T10:00:00Z,28.9818,-94.9186,1013.47,11111222 
TABS,ioos:station:wmo:42043:1,2019-07-04T11:00:00Z,28.9818,-94.9186,1013.87,11111222 
TABS,ioos:station:wmo:42043:1,2019-07-04T12:00:00Z,28.9818,-94.9186,1014.51,11111222 
TABS,ioos:station:wmo:42043:1,2019-07-04T13:00:00Z,28.9818,-94.9186,1015.18,11111222 
TABS,ioos:station:wmo:42043:1,2019-07-04T14:00:00Z,28.9818,-94.9186,1015.71,11111222 
TABS,ioos:station:wmo:42043:1,2019-07-04T15:00:00Z,28.9818,-94.9186,1015.5,11111222 
TABS,ioos:station:wmo:42043:1,2019-07-04T16:00:00Z,28.9818,-94.9186,1016.06,11111222 
TABS,ioos:station:wmo:42043:1,2019-07-04T17:00:00Z,28.9818,-94.9186,1016.44,11111222 
TABS,ioos:station:wmo:42043:1,2019-07-04T18:00:00Z,28.9818,-94.9186,1016.53,11111222 
TABS,ioos:station:wmo:42043:1,2019-07-04T19:00:00Z,28.9818,-94.9186,1016.1,11111222 
TABS,ioos:station:wmo:42043:1,2019-07-04T20:00:00Z,28.9818,-94.9186,1015.69,11111222 
TABS,ioos:station:wmo:42043:1,2019-07-04T21:00:00Z,28.9818,-94.9186,1015.35,11111222 
TABS,ioos:station:wmo:42043:1,2019-07-04T22:00:00Z,28.9818,-94.9186,1015.33,11111222 
TABS,ioos:station:wmo:42043:1,2019-07-04T23:00:00Z,28.9818,-94.9186,1014.55,11111222 
TABS,ioos:station:wmo:42043:1,2019-07-04T23:30:00Z,28.9818,-94.9186,1014.61,11111222 
TABS,ioos:station:wmo:42043:1,2019-07-05T04:00:00Z,28.9818,-94.9186,1015.66,11111222 
TABS,ioos:station:wmo:42043:1,2019-07-05T05:00:00Z,28.9818,-94.9186,1016.41,11111222 
TABS,ioos:station:wmo:42043:1,2019-07-05T06:00:00Z,28.9818,-94.9186,1016.68,11111222 
TABS,ioos:station:wmo:42043:1,2019-07-05T07:00:00Z,28.9818,-94.9186,1016.23,11111222 
TABS,ioos:station:wmo:42043:1,2019-07-05T08:00:00Z,28.9818,-94.9186,1016.23,11111222 
TABS,ioos:station:wmo:42043:1,2019-07-05T09:00:00Z,28.9818,-94.9186,1016.25,11111222 
TABS,ioos:station:wmo:42043:1,2019-07-05T10:00:00Z,28.9818,-94.9186,1016.5,11111222 
TABS,ioos:station:wmo:42043:1,2019-07-05T11:00:00Z,28.9818,-94.9186,1016.51,11111222 
TABS,ioos:station:wmo:42043:1,2019-07-05T12:00:00Z,28.9818,-94.9186,1017.07,11111222 
TABS,ioos:station:wmo:42043:1,2019-07-05T13:00:00Z,28.9818,-94.9186,1017.44,11111222 
TABS,ioos:station:wmo:42043:1,2019-07-05T14:00:00Z,28.9818,-94.9186,1018.31,11111222 
TABS,ioos:station:wmo:42043:1,2019-07-05T15:00:00Z,28.9818,-94.9186,1018.53,11111222 
TABS,ioos:station:wmo:42043:1,2019-07-05T16:00:00Z,28.9818,-94.9186,1018.95,11111222 
TABS,ioos:station:wmo:42043:1,2019-07-05T17:00:00Z,28.9818,-94.9186,1019.25,11111222 
TABS,ioos:station:wmo:42043:1,2019-07-05T18:00:00Z,28.9818,-94.9186,1019.43,11111222 
TABS,ioos:station:wmo:42043:1,2019-07-05T19:00:00Z,28.9818,-94.9186,1019.02,11111222 
TABS,ioos:station:wmo:42043:1,2019-07-05T20:00:00Z,28.9818,-94.9186,1018.66,11111222 
TABS,ioos:station:wmo:42043:1,2019-07-05T21:00:00Z,28.9818,-94.9186,1018.16,11111222 
TABS,ioos:station:wmo:42043:1,2019-07-05T22:00:00Z,28.9818,-94.9186,1017.61,11111222 
TABS,ioos:station:wmo:42043:1,2019-07-05T23:00:00Z,28.9818,-94.9186,1016.75,11111222 
TABS,ioos:station:wmo:42043:1,2019-07-05T23:30:00Z,28.9818,-94.9186,1016.56,11111222 
TABS,ioos:station:wmo:42043:1,2019-07-06T04:00:00Z,28.9818,-94.9186,1017.94,11111222 
TABS,ioos:station:wmo:42043:1,2019-07-06T05:00:00Z,28.9818,-94.9186,1018.59,11111222 
TABS,ioos:station:wmo:42043:1,2019-07-06T06:00:00Z,28.9818,-94.9186,1018.46,11111222 
TABS,ioos:station:wmo:42043:1,2019-07-06T07:00:00Z,28.9818,-94.9186,1017.95,11111222 
TABS,ioos:station:wmo:42043:1,2019-07-06T08:00:00Z,28.9818,-94.9186,1017.45,11111222 
TABS,ioos:station:wmo:42043:1,2019-07-06T09:00:00Z,28.9818,-94.9186,1017.66,11111222 
TABS,ioos:station:wmo:42043:1,2019-07-06T10:00:00Z,28.9818,-94.9186,1017.87,11111222 
TABS,ioos:station:wmo:42043:1,2019-07-06T11:00:00Z,28.9818,-94.9186,1018.18,11111222 
TABS,ioos:station:wmo:42043:1,2019-07-06T12:00:00Z,28.9818,-94.9186,1018.49,11111222 
TABS,ioos:station:wmo:42043:1,2019-07-06T13:00:00Z,28.9818,-94.9186,1018.98,11111222 
TABS,ioos:station:wmo:42043:1,2019-07-06T14:00:00Z,28.9818,-94.9186,1019.01,11111222 
TABS,ioos:station:wmo:42043:1,2019-07-06T15:00:00Z,28.9818,-94.9186,1018.95,11111222 
TABS,ioos:station:wmo:42043:1,2019-07-06T16:00:00Z,28.9818,-94.9186,1019.55,11111222 
TABS,ioos:station:wmo:42043:1,2019-07-06T17:00:00Z,28.9818,-94.9186,1019.79,11111222 
TABS,ioos:station:wmo:42043:1,2019-07-06T18:00:00Z,28.9818,-94.9186,1019.53,11111222 
TABS,ioos:station:wmo:42043:1,2019-07-06T19:00:00Z,28.9818,-94.9186,1019.12,11111222 
TABS,ioos:station:wmo:42043:1,2019-07-06T20:00:00Z,28.9818,-94.9186,1018.49,11111222 
TABS,ioos:station:wmo:42043:1,2019-07-06T21:00:00Z,28.9818,-94.9186,1017.64,11111222 
TABS,ioos:station:wmo:42043:1,2019-07-06T22:00:00Z,28.9818,-94.9186,1016.68,11111222 
TABS,ioos:station:wmo:42043:1,2019-07-06T23:00:00Z,28.9818,-94.9186,1016.11,11111222 
TABS,ioos:station:wmo:42043:1,2019-07-06T23:30:00Z,28.9818,-94.9186,1016.37,11111222 
TABS,ioos:station:wmo:42043:1,2019-07-07T04:00:00Z,28.9818,-94.9186,1017.75,11111222 
TABS,ioos:station:wmo:42043:1,2019-07-07T05:00:00Z,28.9818,-94.9186,1017.34,11111222 
TABS,ioos:station:wmo:42043:1,2019-07-07T06:00:00Z,28.9818,-94.9186,1016.77,11111222 
TABS,ioos:station:wmo:42043:1,2019-07-07T07:00:00Z,28.9818,-94.9186,1016.41,11111222 
TABS,ioos:station:wmo:42043:1,2019-07-07T08:00:00Z,28.9818,-94.9186,1016.21,11111222 
TABS,ioos:station:wmo:42043:1,2019-07-07T09:00:00Z,28.9818,-94.9186,1016.23,11111222 
TABS,ioos:station:wmo:42043:1,2019-07-07T10:00:00Z,28.9818,-94.9186,1015.9,11111222 
TABS,ioos:station:wmo:42043:1,2019-07-07T11:00:00Z,28.9818,-94.9186,1016.5,11111222 
TABS,ioos:station:wmo:42043:1,2019-07-07T12:00:00Z,28.9818,-94.9186,1016.94,11111222 
TABS,ioos:station:wmo:42043:1,2019-07-07T13:00:00Z,28.9818,-94.9186,1017.69,11111222 
TABS,ioos:station:wmo:42043:1,2019-07-07T14:00:00Z,28.9818,-94.9186,1017.85,11111222 
TABS,ioos:station:wmo:42043:1,2019-07-07T15:00:00Z,28.9818,-94.9186,1017.86,11111222 
TABS,ioos:station:wmo:42043:1,2019-07-07T16:00:00Z,28.9818,-94.9186,1017.72,11111222 
TABS,ioos:station:wmo:42043:1,2019-07-07T17:00:00Z,28.9818,-94.9186,1017.32,11111222 
TABS,ioos:station:wmo:42043:1,2019-07-07T18:00:00Z,28.9818,-94.9186,1016.99,11111222 
TABS,ioos:station:wmo:42043:1,2019-07-07T19:00:00Z,28.9818,-94.9186,1016.37,11111222 
TABS,ioos:station:wmo:42043:1,2019-07-07T20:00:00Z,28.9818,-94.9186,1015.94,11111222 
TABS,ioos:station:wmo:42043:1,2019-07-07T21:00:00Z,28.9818,-94.9186,1015.42,11111222 
TABS,ioos:station:wmo:42043:1,2019-07-07T22:00:00Z,28.9818,-94.9186,1015.18,11111222 
TABS,ioos:station:wmo:42043:1,2019-07-07T23:00:00Z,28.9818,-94.9186,1014.46,11111222 
TABS,ioos:station:wmo:42043:1,2019-07-07T23:30:00Z,28.9818,-94.9186,1014.27,11111222 
TABS,ioos:station:wmo:42043:1,2019-07-08T04:00:00Z,28.9818,-94.9186,1015.05,11111222 
TABS,ioos:station:wmo:42043:1,2019-07-08T05:00:00Z,28.9818,-94.9186,1014.97,11111222 
TABS,ioos:station:wmo:42043:1,2019-07-08T06:00:00Z,28.9818,-94.9186,1014.67,11111222 
TABS,ioos:station:wmo:42043:1,2019-07-08T07:00:00Z,28.9818,-94.9186,1014.64,11111222 
TABS,ioos:station:wmo:42043:1,2019-07-08T08:00:00Z,28.9818,-94.9186,1014.31,11111222 
TABS,ioos:station:wmo:42043:1,2019-07-08T09:00:00Z,28.9818,-94.9186,1013.49,11111222 
TABS,ioos:station:wmo:42043:1,2019-07-08T10:00:00Z,28.9818,-94.9186,1013.36,11111222 
TABS,ioos:station:wmo:42043:1,2019-07-08T11:00:00Z,28.9818,-94.9186,1013.66,11111222 
TABS,ioos:station:wmo:42043:1,2019-07-08T12:00:00Z,28.9818,-94.9186,1014.35,11111222 
TABS,ioos:station:wmo:42043:1,2019-07-08T13:00:00Z,28.9818,-94.9186,1014.73,11111222 
TABS,ioos:station:wmo:42043:1,2019-07-08T14:00:00Z,28.9818,-94.9186,1015.21,11111222 
TABS,ioos:station:wmo:42043:1,2019-07-08T15:00:00Z,28.9818,-94.9186,1015.42,11111222 
TABS,ioos:station:wmo:42043:1,2019-07-08T16:00:00Z,28.9818,-94.9186,1015.68,11111222 
TABS,ioos:station:wmo:42043:1,2019-07-08T17:00:00Z,28.9818,-94.9186,1015.3,11111222 
TABS,ioos:station:wmo:42043:1,2019-07-08T18:00:00Z,28.9818,-94.9186,1015.13,11111222 
TABS,ioos:station:wmo:42043:1,2019-07-08T19:00:00Z,28.9818,-94.9186,1014.66,11111222 
TABS,ioos:station:wmo:42043:1,2019-07-08T20:00:00Z,28.9818,-94.9186,1013.96,11111222 
TABS,ioos:station:wmo:42043:1,2019-07-08T21:00:00Z,28.9818,-94.9186,1013.34,11111222 
TABS,ioos:station:wmo:42043:1,2019-07-08T22:00:00Z,28.9818,-94.9186,1012.96,11111222 
TABS,ioos:station:wmo:42043:1,2019-07-08T23:00:00Z,28.9818,-94.9186,1012.63,11111222 
TABS,ioos:station:wmo:42043:1,2019-07-08T23:30:00Z,28.9818,-94.9186,1012.74,11111222 
TABS,ioos:station:wmo:42043:1,2019-07-09T04:00:00Z,28.9818,-94.9186,1013.58,11111222 
TABS,ioos:station:wmo:42043:1,2019-07-09T05:00:00Z,28.9818,-94.9186,1013.43,11111222 
TABS,ioos:station:wmo:42043:1,2019-07-09T06:00:00Z,28.9818,-94.9186,1013.71,11111222 
TABS,ioos:station:wmo:42043:1,2019-07-09T07:00:00Z,28.9818,-94.9186,1013.74,11111222 
TABS,ioos:station:wmo:42043:1,2019-07-09T08:00:00Z,28.9818,-94.9186,1013.63,11111222 
TABS,ioos:station:wmo:42043:1,2019-07-09T09:00:00Z,28.9818,-94.9186,1013.09,11111222 
TABS,ioos:station:wmo:42043:1,2019-07-09T10:00:00Z,28.9818,-94.9186,1012.97,11111222 
TABS,ioos:station:wmo:42043:1,2019-07-09T11:00:00Z,28.9818,-94.9186,1013.09,11111222 
TABS,ioos:station:wmo:42043:1,2019-07-09T12:00:00Z,28.9818,-94.9186,1014.0,11111222 
TABS,ioos:station:wmo:42043:1,2019-07-09T13:00:00Z,28.9818,-94.9186,1014.52,11111222 
TABS,ioos:station:wmo:42043:1,2019-07-09T14:00:00Z,28.9818,-94.9186,1015.33,11111222 
TABS,ioos:station:wmo:42043:1,2019-07-09T15:00:00Z,28.9818,-94.9186,1015.83,11111222 
TABS,ioos:station:wmo:42043:1,2019-07-09T16:00:00Z,28.9818,-94.9186,1015.99,11111222 
TABS,ioos:station:wmo:42043:1,2019-07-09T17:00:00Z,28.9818,-94.9186,1015.54,11111222 
TABS,ioos:station:wmo:42043:1,2019-07-09T18:00:00Z,28.9818,-94.9186,1015.51,11111222 
TABS,ioos:station:wmo:42043:1,2019-07-09T19:00:00Z,28.9818,-94.9186,1015.02,11111222 
TABS,ioos:station:wmo:42043:1,2019-07-09T20:00:00Z,28.9818,-94.9186,1014.7,11111222 
TABS,ioos:station:wmo:42043:1,2019-07-09T21:00:00Z,28.9818,-94.9186,1014.23,11111222 
TABS,ioos:station:wmo:42043:1,2019-07-09T22:00:00Z,28.9818,-94.9186,1013.73,11111222 
TABS,ioos:station:wmo:42043:1,2019-07-09T23:00:00Z,28.9818,-94.9186,1013.29,11111222 
TABS,ioos:station:wmo:42043:1,2019-07-09T23:30:00Z,28.9818,-94.9186,1013.27,11111222 
TABS,ioos:station:wmo:42043:1,2019-07-10T04:00:00Z,28.9818,-94.9186,1014.61,11111222 
TABS,ioos:station:wmo:42043:1,2019-07-10T05:00:00Z,28.9818,-94.9186,1014.69,11111222 
TABS,ioos:station:wmo:42043:1,2019-07-10T05:30:00Z,28.9818,-94.9186,1014.95,11111222 
TABS,ioos:station:wmo:42043:1,2019-07-10T07:00:00Z,28.9818,-94.9186,1014.0,11111222 
TABS,ioos:station:wmo:42043:1,2019-07-10T08:00:00Z,28.9818,-94.9186,1013.79,11111222 
TABS,ioos:station:wmo:42043:1,2019-07-10T09:00:00Z,28.9818,-94.9186,1013.69,11111222 
TABS,ioos:station:wmo:42043:1,2019-07-10T10:00:00Z,28.9818,-94.9186,1013.82,11111222 
TABS,ioos:station:wmo:42043:1,2019-07-10T11:00:00Z,28.9818,-94.9186,1014.3,11111222 
TABS,ioos:station:wmo:42043:1,2019-07-10T12:00:00Z,28.9818,-94.9186,1015.24,11111222 
TABS,ioos:station:wmo:42043:1,2019-07-10T13:00:00Z,28.9818,-94.9186,1015.07,11111222 
TABS,ioos:station:wmo:42043:1,2019-07-10T14:00:00Z,28.9818,-94.9186,1015.76,11111222 
TABS,ioos:station:wmo:42043:1,2019-07-10T15:00:00Z,28.9818,-94.9186,1016.03,11111222 
TABS,ioos:station:wmo:42043:1,2019-07-10T16:00:00Z,28.9818,-94.9186,1016.19,11111222 
TABS,ioos:station:wmo:42043:1,2019-07-10T17:00:00Z,28.9818,-94.9186,1016.17,11111222 
TABS,ioos:station:wmo:42043:1,2019-07-10T18:00:00Z,28.9818,-94.9186,1016.26,11111222 
TABS,ioos:station:wmo:42043:1,2019-07-10T19:00:00Z,28.9818,-94.9186,1015.73,11111222 
TABS,ioos:station:wmo:42043:1,2019-07-10T20:00:00Z,28.9818,-94.9186,1015.22,11111222 
TABS,ioos:station:wmo:42043:1,2019-07-10T21:00:00Z,28.9818,-94.9186,1014.57,11111222 
TABS,ioos:station:wmo:42043:1,2019-07-10T22:00:00Z,28.9818,-94.9186,1013.78,11111222 
TABS,ioos:station:wmo:42043:1,2019-07-10T23:00:00Z,28.9818,-94.9186,1012.76,11111222 
TABS,ioos:station:wmo:42043:1,2019-07-10T23:30:00Z,28.9818,-94.9186,1012.83,11111222 
TABS,ioos:station:wmo:42043:1,2019-07-11T04:00:00Z,28.9818,-94.9186,1013.84,11111222 
TABS,ioos:station:wmo:42043:1,2019-07-11T05:00:00Z,28.9818,-94.9186,1013.71,11111222 
TABS,ioos:station:wmo:42043:1,2019-07-11T06:00:00Z,28.9818,-94.9186,1014.22,11111222 
TABS,ioos:station:wmo:42043:1,2019-07-11T06:30:00Z,28.9818,-94.9186,1013.58,11111222 
TABS,ioos:station:wmo:42043:1,2019-07-11T08:00:00Z,28.9818,-94.9186,1012.22,11111222 
TABS,ioos:station:wmo:42043:1,2019-07-11T09:00:00Z,28.9818,-94.9186,1011.87,11111222 
TABS,ioos:station:wmo:42043:1,2019-07-11T10:00:00Z,28.9818,-94.9186,1011.28,11111222 
TABS,ioos:station:wmo:42043:1,2019-07-11T11:00:00Z,28.9818,-94.9186,1011.08,11111222 
TABS,ioos:station:wmo:42043:1,2019-07-11T12:00:00Z,28.9818,-94.9186,1011.78,11111222 
TABS,ioos:station:wmo:42043:1,2019-07-11T13:00:00Z,28.9818,-94.9186,1012.53,11111222 
TABS,ioos:station:wmo:42043:1,2019-07-11T14:00:00Z,28.9818,-94.9186,1013.07,11111222 
TABS,ioos:station:wmo:42043:1,2019-07-11T15:00:00Z,28.9818,-94.9186,1012.51,11111222 
TABS,ioos:station:wmo:42043:1,2019-07-11T16:00:00Z,28.9818,-94.9186,1012.82,11111222 
TABS,ioos:station:wmo:42043:1,2019-07-11T17:00:00Z,28.9818,-94.9186,1012.48,11111222 
TABS,ioos:station:wmo:42043:1,2019-07-11T18:00:00Z,28.9818,-94.9186,1012.03,11111222 
TABS,ioos:station:wmo:42043:1,2019-07-11T19:00:00Z,28.9818,-94.9186,1011.26,11111222 
TABS,ioos:station:wmo:42043:1,2019-07-11T20:00:00Z,28.9818,-94.9186,1010.52,11111222 
TABS,ioos:station:wmo:42043:1,2019-07-11T21:00:00Z,28.9818,-94.9186,1009.33,11111222 
TABS,ioos:station:wmo:42043:1,2019-07-11T22:00:00Z,28.9818,-94.9186,1009.19,11111222 
TABS,ioos:station:wmo:42043:1,2019-07-11T23:00:00Z,28.9818,-94.9186,1008.75,11111222 
TABS,ioos:station:wmo:42043:1,2019-07-11T23:30:00Z,28.9818,-94.9186,1009.05,11111222 
TABS,ioos:station:wmo:42043:1,2019-07-12T04:00:00Z,28.9818,-94.9186,1009.22,11111222 
TABS,ioos:station:wmo:42043:1,2019-07-12T05:00:00Z,28.9818,-94.9186,1008.86,11111222 
TABS,ioos:station:wmo:42043:1,2019-07-12T06:00:00Z,28.9818,-94.9186,1008.66,11111222 
TABS,ioos:station:wmo:42043:1,2019-07-12T07:00:00Z,28.9818,-94.9186,1008.41,11111222 
TABS,ioos:station:wmo:42043:1,2019-07-12T08:00:00Z,28.9818,-94.9186,1007.95,11111222 
TABS,ioos:station:wmo:42043:1,2019-07-12T09:00:00Z,28.9818,-94.9186,1007.51,11111222 
TABS,ioos:station:wmo:42043:1,2019-07-12T10:00:00Z,28.9818,-94.9186,1006.92,11111222 
TABS,ioos:station:wmo:42043:1,2019-07-12T11:00:00Z,28.9818,-94.9186,1007.26,11111222 
TABS,ioos:station:wmo:42043:1,2019-07-12T12:00:00Z,28.9818,-94.9186,1007.57,11111222 
TABS,ioos:station:wmo:42043:1,2019-07-12T13:00:00Z,28.9818,-94.9186,1007.86,11111222 
TABS,ioos:station:wmo:42043:1,2019-07-12T14:00:00Z,28.9818,-94.9186,1008.09,11111222 
TABS,ioos:station:wmo:42043:1,2019-07-12T15:00:00Z,28.9818,-94.9186,1008.31,11111222 
TABS,ioos:station:wmo:42043:1,2019-07-12T16:00:00Z,28.9818,-94.9186,1008.44,11111222 
TABS,ioos:station:wmo:42043:1,2019-07-12T17:00:00Z,28.9818,-94.9186,1008.3,11111222 
TABS,ioos:station:wmo:42043:1,2019-07-12T18:00:00Z,28.9818,-94.9186,1007.59,11111222 
TABS,ioos:station:wmo:42043:1,2019-07-12T19:00:00Z,28.9818,-94.9186,1007.02,11111222 
TABS,ioos:station:wmo:42043:1,2019-07-12T20:00:00Z,28.9818,-94.9186,1006.58,11111222 
TABS,ioos:station:wmo:42043:1,2019-07-12T21:00:00Z,28.9818,-94.9186,1005.86,11111222 
TABS,ioos:station:wmo:42043:1,2019-07-12T22:00:00Z,28.9818,-94.9186,1005.3,11111222 
TABS,ioos:station:wmo:42043:1,2019-07-12T23:00:00Z,28.9818,-94.9186,1004.9,11111222 
TABS,ioos:station:wmo:42043:1,2019-07-12T23:30:00Z,28.9818,-94.9186,1004.56,11111222 
TABS,ioos:station:wmo:42043:1,2019-07-13T04:00:00Z,28.9818,-94.9186,1006.18,11111222 
TABS,ioos:station:wmo:42043:1,2019-07-13T05:00:00Z,28.9818,-94.9186,1005.64,11111222 
TABS,ioos:station:wmo:42043:1,2019-07-13T06:00:00Z,28.9818,-94.9186,1005.42,11111222 
TABS,ioos:station:wmo:42043:1,2019-07-13T07:00:00Z,28.9818,-94.9186,1004.84,11111222 
TABS,ioos:station:wmo:42043:1,2019-07-13T08:00:00Z,28.9818,-94.9186,1004.73,11111222 
TABS,ioos:station:wmo:42043:1,2019-07-13T09:00:00Z,28.9818,-94.9186,1004.37,11111222 
TABS,ioos:station:wmo:42043:1,2019-07-13T10:00:00Z,28.9818,-94.9186,1004.74,11111222 
TABS,ioos:station:wmo:42043:1,2019-07-13T11:00:00Z,28.9818,-94.9186,1005.34,11111222 
TABS,ioos:station:wmo:42043:1,2019-07-13T12:00:00Z,28.9818,-94.9186,1005.6,11111222 
TABS,ioos:station:wmo:42043:1,2019-07-13T13:00:00Z,28.9818,-94.9186,1006.48,11111222 
TABS,ioos:station:wmo:42043:1,2019-07-13T14:00:00Z,28.9818,-94.9186,1006.92,11111222 
TABS,ioos:station:wmo:42043:1,2019-07-13T15:00:00Z,28.9818,-94.9186,1007.11,11111222 
TABS,ioos:station:wmo:42043:1,2019-07-13T16:00:00Z,28.9818,-94.9186,1006.95,11111222 
TABS,ioos:station:wmo:42043:1,2019-07-13T17:00:00Z,28.9818,-94.9186,1006.42,11111222 
TABS,ioos:station:wmo:42043:1,2019-07-13T18:00:00Z,28.9818,-94.9186,1006.22,11111222 
TABS,ioos:station:wmo:42043:1,2019-07-13T19:00:00Z,28.9818,-94.9186,1006.25,11111222 
TABS,ioos:station:wmo:42043:1,2019-07-13T20:00:00Z,28.9818,-94.9186,1006.02,11111222 
TABS,ioos:station:wmo:42043:1,2019-07-13T21:00:00Z,28.9818,-94.9186,1005.58,11111222 
TABS,ioos:station:wmo:42043:1,2019-07-13T22:00:00Z,28.9818,-94.9186,1005.39,11111222 
TABS,ioos:station:wmo:42043:1,2019-07-13T23:00:00Z,28.9818,-94.9186,1005.43,11111222 
TABS,ioos:station:wmo:42043:1,2019-07-13T23:30:00Z,28.9818,-94.9186,1005.76,11111222 
TABS,ioos:station:wmo:42043:1,2019-07-14T04:00:00Z,28.9818,-94.9186,1008.05,11111222 
TABS,ioos:station:wmo:42043:1,2019-07-14T05:00:00Z,28.9818,-94.9186,1008.41,11111222 
TABS,ioos:station:wmo:42043:1,2019-07-14T06:00:00Z,28.9818,-94.9186,1008.0,11111222 
TABS,ioos:station:wmo:42043:1,2019-07-14T07:00:00Z,28.9818,-94.9186,1007.54,11111222 
TABS,ioos:station:wmo:42043:1,2019-07-14T08:00:00Z,28.9818,-94.9186,1007.69,11111222 
TABS,ioos:station:wmo:42043:1,2019-07-14T09:00:00Z,28.9818,-94.9186,1008.63,11111222 
TABS,ioos:station:wmo:42043:1,2019-07-14T10:00:00Z,28.9818,-94.9186,1008.71,11111222 